sat.trackr.live / text

‹ back to catalog

STARLINK-36081

NORAD 67498 · 2026-012F

PAYLOAD ACTIVE UNKNOWN

§ Identity

Operator
Country
US
Launch date
2026-01-18
Launch site
AFETR
Launch vehicle
Mass (kg)
RCS (m²)

Purposes: comms

External: N2YO · Heavens-Above · Gunter

§ Orbital elements

Epoch: 2026-05-24T15:00:10.909728Z

Period
94.27 min
Inclination
42.9989°
Eccentricity
0.0001282
Mean motion
15.27592568 rev/d
Perigee alt
482.1 km
Apogee alt
483.9 km
Semi-major
6,861.1 km
B*
4.4988e-4
RAAN
245.7060°
Arg perigee
264.4234°
Mean anomaly
95.6472°
Rev number
1,937

§ Raw data

STARLINK-360811 67498U 26012F   26144.62512627  .00012143  00000+0  44988-3 0  99992 67498  42.9989 245.7060 0001282 264.4234  95.6472 15.27592568 19372

JSON: /api/v1/satellites/67498 · /tle

For live sub-satellite position, see the globe view (requires WebGL).

§ Visibility from observer

Set your observer location to see the next 7 days of passes ≥ 10°. The values pass through the URL so the page stays shareable.

No JS? Fill the form by hand. The geolocation button needs JavaScript.